Hinsdale, NY

1:16 AM EST on February 27, 2017 (GMT -0500)
Cattaraugus County-Olean

Weather History for KOLE - October, 2012

Change the Weather History Date:

Monday, October 22, 2012

  Actual Average (KBFD) Record (KBFD)
Temperature  
Mean Temperature 50 °F -  
Max Temperature 62 °F 54 °F 78 °F (1979)
Min Temperature 37 °F 36 °F 24 °F (1969)
Degree Days  
Heating Degree Days 16    
Moisture  
Dew Point 38 °F    
Average Humidity 66    
Maximum Humidity 93    
Minimum Humidity 39    
Precipitation  
Precipitation 0.00 in - - ()
Sea Level Pressure  
Sea Level Pressure 30.11 in    
Wind  
Wind Speed 1 mph ()    
Max Wind Speed 7 mph    
Max Gust Speed -    
Visibility 10.0 miles    
Events      
Averages and records for this station are not official NWS values.
T = Trace of Precipitation, MM = Missing Value Source: Averaged Metar Reports

Daily Weather History Graph

Daily Weather History Graph

Search for Another Location

Airport or City:

Trip Planner

Search our weather history database for the weather conditions in past years. The results will help you decide how hot, cold, wet, or windy it might be!

Date:

Astronomy

Oct. 22, 2012 Rise Set
Actual Time 7:34 AM EDT 6:20 PM EDT
Civil Twilight 7:06 AM EDT 6:48 PM EDT
Nautical Twilight 6:33 AM EDT 7:21 PM EDT
Astronomical Twilight 6:01 AM EDT 7:53 PM EDT
Moon 2:33 PM EDT (10/22) 12:12 AM EDT (10/22)
Length of Visible Light 11h 42m
Length of Day
10h 45m
First Quarter, 56% of the Moon is Illuminated
Oct 22
First Quarter
Oct 29
Full
Nov 6
Last Quarter
Nov 13
New
Nov 20
First Quarter

Hourly Weather History & Observations

Time (EDT) Temp. Windchill Dew Point Humidity Pressure Visibility Wind Dir Wind Speed Gust Speed Precip Events Conditions
12:15 AM 41.0 °F - 35.6 °F 81% 30.10 in 10.0 mi Calm Calm - N/A   Clear
12:35 AM 41.0 °F - 35.6 °F 81% 30.10 in 10.0 mi Calm Calm - N/A   Clear
12:55 AM 41.0 °F - 35.6 °F 81% 30.10 in 10.0 mi Calm Calm - N/A   Clear
1:15 AM 41.0 °F - 35.6 °F 81% 30.09 in 10.0 mi Calm Calm - N/A   Clear
1:55 AM 39.2 °F 37.0 °F 35.6 °F 87% 30.09 in 10.0 mi West 3.5 mph - N/A   Clear
2:15 AM 39.2 °F 37.0 °F 35.6 °F 87% 30.10 in 10.0 mi West 3.5 mph - N/A   Clear
2:35 AM 37.4 °F - 35.6 °F 93% 30.09 in 10.0 mi Calm Calm - N/A   Clear
2:55 AM 39.2 °F 37.0 °F 35.6 °F 87% 30.09 in 10.0 mi West 3.5 mph - N/A   Clear
3:15 AM 41.0 °F - 35.6 °F 81% 30.09 in 10.0 mi Calm Calm - N/A   Clear
3:35 AM 39.2 °F - 35.6 °F 87% 30.09 in 10.0 mi Calm Calm - N/A   Clear
3:55 AM 39.2 °F - 35.6 °F 87% 30.09 in 10.0 mi Calm Calm - N/A   Clear
4:15 AM 39.2 °F - 35.6 °F 87% 30.10 in 10.0 mi Calm Calm - N/A   Clear
4:55 AM 39.2 °F 37.0 °F 35.6 °F 87% 30.10 in 10.0 mi West 3.5 mph - N/A   Clear
5:15 AM 39.2 °F - 35.6 °F 87% 30.10 in 10.0 mi Calm Calm - N/A   Clear
5:35 AM 39.2 °F - 35.6 °F 87% 30.11 in 10.0 mi Calm Calm - N/A   Clear
5:55 AM 39.2 °F - 35.6 °F 87% 30.11 in 10.0 mi Calm Calm - N/A   Clear
6:15 AM 39.2 °F - 35.6 °F 87% 30.11 in 10.0 mi Calm Calm - N/A   Clear
6:35 AM 39.2 °F - 35.6 °F 87% 30.12 in 10.0 mi Calm Calm - N/A   Clear
6:55 AM 39.2 °F - 35.6 °F 87% 30.12 in 10.0 mi Calm Calm - N/A   Clear
7:15 AM 39.2 °F - 35.6 °F 87% 30.12 in 10.0 mi Calm Calm - N/A   Clear
7:35 AM 37.4 °F - 35.6 °F 93% 30.13 in 10.0 mi Calm Calm - N/A   Clear
7:55 AM 39.2 °F - 35.6 °F 87% 30.13 in 10.0 mi Calm Calm - N/A   Clear
8:15 AM 39.2 °F - 35.6 °F 87% 30.14 in 10.0 mi Calm Calm - N/A   Clear
8:35 AM 41.0 °F - 35.6 °F 81% 30.14 in 10.0 mi Calm Calm - N/A   Clear
8:55 AM 41.0 °F - 37.4 °F 87% 30.14 in 10.0 mi Calm Calm - N/A   Clear
9:15 AM 42.8 °F - 37.4 °F 81% 30.15 in 10.0 mi Calm Calm - N/A   Clear
9:35 AM 42.8 °F 41.1 °F 37.4 °F 81% 30.15 in 10.0 mi WSW 3.5 mph - N/A   Clear
9:55 AM 44.6 °F 43.1 °F 39.2 °F 81% 30.15 in 10.0 mi SW 3.5 mph - N/A   Clear
10:15 AM 46.4 °F - 39.2 °F 76% 30.15 in 10.0 mi Calm Calm - N/A   Clear
10:35 AM 50.0 °F - 39.2 °F 66% 30.15 in 10.0 mi SW 4.6 mph - N/A   Clear
10:55 AM 50.0 °F - 39.2 °F 66% 30.15 in 10.0 mi SW 3.5 mph - N/A   Clear
11:15 AM 51.8 °F - 41.0 °F 67% 30.16 in 10.0 mi Calm Calm - N/A   Clear
11:35 AM 53.6 °F - 41.0 °F 62% 30.15 in 10.0 mi WSW 4.6 mph - N/A   Clear
11:55 AM 53.6 °F - 41.0 °F 62% 30.15 in 10.0 mi West 3.5 mph - N/A   Clear
12:15 PM 55.4 °F - 39.2 °F 54% 30.15 in 10.0 mi WNW 6.9 mph - N/A   Clear
12:35 PM 55.4 °F - 39.2 °F 54% 30.15 in 10.0 mi Calm Calm - N/A   Clear
12:55 PM 57.2 °F - 39.2 °F 51% 30.14 in 10.0 mi WSW 4.6 mph - N/A   Clear
1:15 PM 59.0 °F - 39.2 °F 48% 30.14 in 10.0 mi WNW 5.8 mph - N/A   Clear
1:35 PM 59.0 °F - 37.4 °F 45% 30.13 in 10.0 mi West 3.5 mph - N/A   Clear
1:55 PM 59.0 °F - 37.4 °F 45% 30.13 in 10.0 mi NW 6.9 mph - N/A   Clear
2:15 PM 60.8 °F - 37.4 °F 42% 30.12 in 10.0 mi WNW 5.8 mph - N/A   Clear
2:35 PM 60.8 °F - 35.6 °F 39% 30.11 in 10.0 mi WNW 3.5 mph - N/A   Clear
2:55 PM 62.6 °F - 37.4 °F 39% 30.11 in 10.0 mi WNW 4.6 mph - N/A   Clear
3:15 PM 62.6 °F - 37.4 °F 39% 30.10 in 10.0 mi West 3.5 mph - N/A   Clear
3:35 PM 62.6 °F - 37.4 °F 39% 30.11 in 10.0 mi West 4.6 mph - N/A   Clear
3:55 PM 62.6 °F - 39.2 °F 42% 30.10 in 10.0 mi Calm Calm - N/A   Clear
4:15 PM 62.6 °F - 39.2 °F 42% 30.10 in 10.0 mi Calm Calm - N/A   Clear
4:35 PM 62.6 °F - 39.2 °F 42% 30.10 in 10.0 mi Calm Calm - N/A   Clear
4:55 PM 62.6 °F - 37.4 °F 39% 30.10 in 10.0 mi Calm Calm - N/A   Clear
5:15 PM 60.8 °F - 37.4 °F 42% 30.10 in 10.0 mi WSW 3.5 mph - N/A   Clear
5:35 PM 60.8 °F - 37.4 °F 42% 30.10 in 10.0 mi Calm Calm - N/A   Clear
5:55 PM 60.8 °F - 37.4 °F 42% 30.11 in 10.0 mi Calm Calm - N/A   Clear
6:15 PM 59.0 °F - 37.4 °F 45% 30.11 in 10.0 mi Calm Calm - N/A   Clear
6:35 PM 59.0 °F - 37.4 °F 45% 30.11 in 10.0 mi Calm Calm - N/A   Clear
6:55 PM 59.0 °F - 37.4 °F 45% 30.11 in 10.0 mi Calm Calm - N/A   Clear
7:15 PM 57.2 °F - 39.2 °F 51% 30.11 in 10.0 mi Calm Calm - N/A   Clear
7:35 PM 57.2 °F - 39.2 °F 51% 30.11 in 10.0 mi WSW 3.5 mph - N/A   Clear
7:55 PM 57.2 °F - 39.2 °F 51% 30.11 in 10.0 mi WSW 4.6 mph - N/A   Clear
8:15 PM 57.2 °F - 39.2 °F 51% 30.10 in 10.0 mi Calm Calm - N/A   Clear
8:35 PM 57.2 °F - 41.0 °F 55% 30.10 in 10.0 mi Calm Calm - N/A   Clear
8:55 PM 55.4 °F - 41.0 °F 58% 30.10 in 10.0 mi SW 5.8 mph - N/A   Clear
9:15 PM 55.4 °F - 41.0 °F 58% 30.10 in 10.0 mi SSW 4.6 mph - N/A   Clear
9:55 PM 55.4 °F - 41.0 °F 58% 30.10 in 10.0 mi SSW 4.6 mph - N/A   Clear
10:15 PM 55.4 °F - 41.0 °F 58% 30.09 in 10.0 mi SW 4.6 mph - N/A   Clear
10:35 PM 55.4 °F - 41.0 °F 58% 30.09 in 10.0 mi South 3.5 mph - N/A   Clear
10:55 PM 53.6 °F - 41.0 °F 62% 30.09 in 10.0 mi Calm Calm - N/A   Clear
11:15 PM 53.6 °F - 41.0 °F 62% 30.10 in 10.0 mi Calm Calm - N/A   Clear
11:35 PM 53.6 °F - 42.8 °F 67% 30.10 in 10.0 mi Calm Calm - N/A   Scattered Clouds
11:55 PM 53.6 °F - 42.8 °F 67% 30.09 in 10.0 mi Calm Calm - N/A   Overcast